sat.trackr.live / text

‹ back to catalog

QPS-SAR-11 (YAMATSUMI-I)

NORAD 64340 · 2025-125A

PAYLOAD ACTIVE UNKNOWN

§ Identity

Operator
Country
JPN
Launch date
2025-06-11
Launch site
RLLB
Launch vehicle
Mass (kg)
RCS (m²)

External: N2YO · Heavens-Above · Gunter

§ Orbital elements

Epoch: 2026-09-21T08:21:33.787008Z

Period
95.85 min
Inclination
42.0088°
Eccentricity
0.0009634
Mean motion
15.02307153 rev/d
Perigee alt
553.1 km
Apogee alt
566.5 km
Semi-major
6,937.9 km
B*
2.2654e-4
RAAN
21.2630°
Arg perigee
22.7276°
Mean anomaly
337.3975°
Rev number
7,008

§ Raw data

QPS-SAR-11 (YAMATSUMI-I)1 64340U 25125A   26264.34830772  .00002858  00000+0  22654-3 0  99902 64340  42.0088  21.2630 0009634  22.7276 337.3975 15.02307153 70082

JSON: /api/v1/satellites/64340 · /tle

For live sub-satellite position, see the globe view (requires WebGL).

§ Visibility from observer

Set your observer location to see the next 7 days of passes ≥ 10°. The values pass through the URL so the page stays shareable.

No JS? Fill the form by hand. The geolocation button needs JavaScript.